This is the latest recevied weather packets stored in our database for station/object GBTWP-2. If no packets are shown the sender has not sent any weather packets the latest 10 day(s).
| Time | Temp. | Humidity | Pressure | Rain* | Wind** | Luminosity | Snow |
|---|---|---|---|---|---|---|---|
| 1787910421 | 12.22° C | 94% | 1022.9 hPa | 0 mm | - | 0 W/m² | - |
| 1787910120 | 12.22° C | 94% | 1023 hPa | 0 mm | - | 0 W/m² | - |
| 1787909820 | 12.78° C | 94% | 1022.9 hPa | 0 mm | - | 0 W/m² | - |
| 1787909520 | 12.78° C | 94% | 1022.7 hPa | 0 mm | - | 0 W/m² | - |
| 1787909220 | 12.78° C | 94% | 1022.6 hPa | 0 mm | - | 0 W/m² | - |
| 1787908920 | 12.78° C | 94% | 1022.5 hPa | 0 mm | - | 0 W/m² | - |
| 1787908620 | 12.78° C | 93% | 1022.6 hPa | 0 mm | - | 0 W/m² | - |
| 1787908320 | 12.78° C | 93% | 1022.6 hPa | 0 mm | - | 0 W/m² | - |
| 1787908020 | 13.33° C | 93% | 1022.4 hPa | 0 mm | - | 0 W/m² | - |
| 1787907720 | 12.78° C | 93% | 1022.5 hPa | 0 mm | - | 0 W/m² | - |
| 1787907420 | 12.78° C | 93% | 1022.5 hPa | 0 mm | - | 0 W/m² | - |
| 1787907121 | 13.33° C | 92% | 1022.4 hPa | 0 mm | - | 0 W/m² | - |
| 1787906820 | 13.33° C | 92% | 1022.2 hPa | 0 mm | - | 0 W/m² | - |
| 1787906520 | 13.33° C | 93% | 1022.3 hPa | 0 mm | - | 0 W/m² | - |
| 1787906220 | 13.33° C | 93% | 1022.1 hPa | 0 mm | - | 0 W/m² | - |
| 1787905920 | 13.33° C | 93% | 1022.2 hPa | 0 mm | - | 0 W/m² | - |
| 1787905620 | 13.33° C | 93% | 1022.2 hPa | 0 mm | - | 0 W/m² | - |
| 1787905320 | 13.33° C | 93% | 1022 hPa | 0 mm | - | 0 W/m² | - |
| 1787905020 | 13.33° C | 92% | 1021.9 hPa | 0 mm | - | 0 W/m² | - |
| 1787904720 | 13.89° C | 92% | 1022 hPa | 0 mm | - | 0 W/m² | - |
| 1787904420 | 13.89° C | 92% | 1021.7 hPa | 0 mm | - | 0 W/m² | - |
| 1787904120 | 13.89° C | 92% | 1021.9 hPa | 0 mm | - | 0 W/m² | - |
| 1787903820 | 13.89° C | 92% | 1021.9 hPa | 0 mm | - | 0 W/m² | - |
| 1787903520 | 14.44° C | 91% | 1021.8 hPa | 0 mm | - | 0 W/m² | - |
| 1787903219 | 14.44° C | 91% | 1021.8 hPa | 0 mm | - | 0 W/m² | - |
* Rain latest hour (hover to see other rain measurements)
** Current wind speed in m/s (hover to see current wind gust speed)